TimeCST,TemperatureF,Dew PointF,Humidity,Sea Level PressureIn,VisibilityMPH,Wind Direction,Wind SpeedMPH,Gust SpeedMPH,PrecipitationIn,Events,Conditions,WindDirDegrees,DateUTC
12:52 AM,15.1,8.1,74,29.70,10.0,WNW,9.2,-,N/A,,Scattered Clouds,300,2014-01-17 06:52:00
1:52 AM,12.9,6.1,74,29.74,10.0,WNW,11.5,20.7,N/A,,Partly Cloudy,290,2014-01-17 07:52:00
2:52 AM,12.0,3.0,67,29.75,10.0,WNW,16.1,25.3,N/A,,Partly Cloudy,290,2014-01-17 08:52:00
3:52 AM,10.9,1.9,67,29.76,10.0,West,12.7,-,N/A,,Mostly Cloudy,280,2014-01-17 09:52:00
4:52 AM,10.9,1.9,67,29.76,10.0,West,17.3,23.0,N/A,,Mostly Cloudy,280,2014-01-17 10:52:00
5:52 AM,10.9,1.9,67,29.78,10.0,West,15.0,-,N/A,,Mostly Cloudy,280,2014-01-17 11:52:00
7:52 AM,10.0,1.9,70,29.81,10.0,West,9.2,-,N/A,,Scattered Clouds,260,2014-01-17 13:52:00
8:52 AM,10.9,1.9,67,29.83,10.0,West,9.2,-,N/A,,Scattered Clouds,280,2014-01-17 14:52:00
9:52 AM,12.9,3.9,67,29.84,10.0,West,11.5,-,N/A,,Scattered Clouds,280,2014-01-17 15:52:00
10:52 AM,16.0,7.0,68,29.84,10.0,West,11.5,-,N/A,,Scattered Clouds,280,2014-01-17 16:52:00
11:52 AM,18.0,9.0,68,29.83,10.0,West,10.4,-,N/A,,Scattered Clouds,270,2014-01-17 17:52:00
12:38 PM,18.0,10.0,71,29.80,10.0,West,13.8,-,N/A,,Mostly Cloudy,280,2014-01-17 18:38:00
12:52 PM,18.0,10.0,71,29.84,10.0,West,10.4,-,N/A,,Mostly Cloudy,270,2014-01-17 18:52:00
1:52 PM,18.0,10.9,74,29.85,8.0,West,11.5,-,0.00,Snow,Light Snow,270,2014-01-17 19:52:00
2:40 PM,18.0,12.0,78,29.82,2.0,West,8.1,-,0.00,Snow,Light Snow,260,2014-01-17 20:40:00
2:50 PM,17.6,12.2,79,29.83,1.8,WSW,9.2,-,0.00,Snow,Light Snow,250,2014-01-17 20:50:00
2:52 PM,18.0,12.0,78,29.87,1.8,West,8.1,-,0.00,Snow,Light Snow,260,2014-01-17 20:52:00
3:23 PM,18.0,12.0,78,29.84,2.0,WSW,9.2,-,0.00,Snow,Light Snow,250,2014-01-17 21:23:00
3:32 PM,18.0,12.0,78,29.84,3.0,WSW,5.8,-,0.00,Snow,Light Snow,250,2014-01-17 21:32:00
3:52 PM,18.0,12.0,78,29.89,3.0,West,9.2,-,0.00,Snow,Light Snow,260,2014-01-17 21:52:00
4:40 PM,19.0,12.9,77,29.86,2.5,WSW,9.2,-,0.00,Snow,Light Snow,250,2014-01-17 22:40:00
4:50 PM,19.4,14.0,80,29.87,3.0,West,6.9,-,0.00,Snow,Light Snow,260,2014-01-17 22:50:00
4:52 PM,19.0,14.0,81,29.91,3.0,West,8.1,-,0.00,Snow,Light Snow,260,2014-01-17 22:52:00
5:02 PM,19.0,14.0,81,29.87,3.0,West,6.9,-,0.00,Snow,Light Snow,270,2014-01-17 23:02:00
5:52 PM,19.9,14.0,78,29.93,8.0,WNW,8.1,-,0.00,Snow,Light Snow,290,2014-01-17 23:52:00
6:52 PM,19.0,12.9,77,29.93,9.0,WNW,12.7,-,0.00,Snow,Light Snow,290,2014-01-18 00:52:00
7:52 PM,19.0,12.9,77,29.94,9.0,WNW,11.5,-,0.00,Snow,Light Snow,290,2014-01-18 01:52:00
8:52 PM,19.0,12.9,77,29.94,7.0,WNW,11.5,-,0.00,Snow,Light Snow,290,2014-01-18 02:52:00
9:34 PM,19.0,12.9,77,29.90,8.0,WNW,10.4,-,0.00,Snow,Light Snow,290,2014-01-18 03:34:00
9:52 PM,18.0,12.9,81,29.94,4.0,West,10.4,-,0.00,Snow,Light Snow,280,2014-01-18 03:52:00
10:52 PM,18.0,12.9,81,29.94,9.0,WNW,10.4,-,0.00,Snow,Light Snow,290,2014-01-18 04:52:00
11:52 PM,18.0,12.0,78,29.93,8.0,West,13.8,-,0.00,Snow,Light Snow,280,2014-01-18 05:52:00